[[{"header":{"parameterUnit":"m.s-1","parameterCategory":1,"la1":30.2991,"la2":30.254,"lo1":-89.0895,"lo2":-89.0444,"dy":0.0017,"dx":0.0017,"nx":28,"ny":28,"refTime":"2024-05-12T09:00:00:Z","depth":0,"parameterNumber":2,"parameterNumberName":"U-component_of_WINDS"},"data":[0,0,0,0,0,0,0,0,0,0,0,0,0,0,0,0,0,0,0,0,0,0,0,0,0,0,0,0,0,0,0,0,0,0,0,0,0,0,0,0,0,0,0,0,0,0,0,0,0,0,0,0,0,0,0,0,0,0,-2.8153,-2.8153,0,-2.8148,-2.8148,-2.8148,-2.8062,-2.8059,-2.8057,-2.8055,-2.8052,-2.8054,-2.8056,0,0,0,0,0,0,0,0,0,0,0,0,0,-2.8088,-2.809,-2.8153,-2.8153,-2.8153,-2.8148,-2.8148,-2.8148,-2.8062,-2.8059,-2.8057,-2.8054,-2.8051,-2.8053,-2.8056,0,0,0,0,0,0,0,0,0,0,0,0,0,-2.8103,-2.8091,-2.8153,-2.8109,-2.8105,-2.8148,-2.8148,-2.8148,-2.8063,-2.8059,-2.8056,-2.8053,-2.805,-2.8053,-2.8056,-2.8141,0,0,-2.8065,-2.8066,0,0,0,0,0,0,0,0,-2.8103,-2.8106,-2.8116,-2.8112,-2.8108,-2.8102,-2.8124,-2.8145,-2.8063,-2.8079,-2.8055,-2.8051,-2.8071,-2.8072,-2.8079,-2.814,-2.814,-2.8065,-2.8067,-2.8068,-2.8069,0,0,0,0,0,0,0,-2.8102,-2.8106,-2.8151,-2.8116,-2.8111,-2.809,-2.8089,-2.8127,-2.8094,-2.8077,-2.8071,-2.8071,-2.8068,-2.8076,-2.8078,-2.814,-2.8065,-2.8068,-2.807,-2.8071,-2.827,-2.8273,0,0,0,0,0,0,-2.8107,-2.8105,-2.8151,-2.8151,-2.8097,-2.8094,-2.8092,-2.8107,-2.8093,-2.8088,-2.8074,-2.8067,-2.8073,-2.8075,-2.8077,-2.8175,-2.8068,-2.8071,-2.8073,-2.8267,-2.8271,-2.8275,0,0,0,0,0,0,-2.8106,-2.8112,-2.8151,-2.8126,-2.813,-2.8099,-2.8116,-2.8109,-2.8116,-2.8091,-2.8084,-2.8088,-2.807,-2.8073,-2.8125,-2.8174,-2.8072,-2.8075,-2.8262,-2.8268,-2.8273,-2.8372,0,0,0,0,0,0,-2.8104,-2.8112,-2.8144,-2.8128,-2.8131,-2.82,-2.8119,-2.8111,-2.8122,-2.8113,-2.8102,-2.8097,-2.8068,-2.8121,-2.8128,-2.8176,-2.8077,-2.8258,-2.8265,-2.8271,-2.8364,-2.838,-2.8393,0,0,0,0,0,-2.8102,-2.8173,-2.8146,-2.8152,-2.8171,-2.8203,-2.8205,-2.8169,-2.8126,-2.8158,-2.8141,-2.8098,-2.8167,-2.8127,-2.8134,-2.8184,-2.8255,-2.8263,-2.827,-2.8358,-2.8377,-2.8393,0,0,0,0,0,0,-2.8196,-2.817,-2.814,-2.8207,-2.8208,-2.8188,-2.8227,-2.819,-2.8204,-2.8195,-2.815,-2.8148,-2.8207,-2.82,-2.8156,-2.8264,-2.8203,-2.8213,-2.8267,-2.8285,-2.8299,-2.8301,-2.808,0,0,0,0,0,-2.8225,-2.8252,-2.8228,-2.8289,-2.8291,-2.8259,-2.8272,-2.8244,-2.8243,-2.8243,-2.823,-2.8231,-2.8253,-2.8268,-2.8287,-2.8362,-2.8359,-2.84,-2.8414,-2.8426,-2.8436,-2.8475,-2.8493,-2.8301,-2.8301,-2.83,0,0,-2.8284,-2.8273,-2.8294,-2.8308,-2.8305,-2.8335,-2.826,-2.8295,-2.8317,-2.8248,-2.8296,-2.8287,-2.8285,-2.8349,-2.8376,-2.8345,-2.8488,-2.8436,-2.8446,-2.8449,-2.8485,-2.8503,-2.8519,-2.8306,-2.8305,-2.8304,0,0,-2.8408,-2.8402,-2.8453,-2.8451,-2.8447,-2.8424,-2.8437,-2.8422,-2.8413,-2.846,-2.8409,-2.8434,-2.8473,-2.8473,-2.8479,-2.86,-2.8561,-2.8607,-2.8685,-2.8723,-2.8738,-2.8751,-2.8795,-2.8811,-2.8617,-2.8617,-2.8617,0,-2.8483,-2.8526,-2.8484,-2.8521,-2.8529,-2.8467,-2.8517,-2.8518,-2.8521,-2.8527,-2.8492,-2.8538,-2.8533,-2.8596,-2.8625,-2.8631,-2.8644,-2.8609,-2.8739,-2.8752,-2.8764,-2.8805,-2.8822,-2.8623,-2.8622,-2.8621,-2.8621,0,-2.8618,-2.8648,-2.8689,-2.8692,-2.8704,-2.8748,-2.8713,-2.873,-2.87,-2.8682,-2.8731,-2.8721,-2.8737,-2.8749,-2.8721,-2.8808,-2.8789,-2.8747,-2.8685,-2.8788,-2.8826,-2.8842,-2.8631,-2.8629,-2.8627,-2.8626,0,0,-2.8804,-2.8781,-2.8797,-2.8797,-2.8786,-2.8809,-2.885,-2.8864,-2.888,-2.8883,-2.8916,-2.895,-2.891,-2.8917,-2.8887,-2.8921,-2.9018,-2.8875,-2.8874,-2.8902,-2.9113,-2.9146,-2.9165,-2.8991,-2.8994,-2.8996,-2.9114,0,-2.8924,-2.8992,-2.8954,-2.9028,-2.9055,-2.8994,-2.903,-2.9028,-2.9011,-2.9032,-2.9013,-2.9038,-2.8984,-2.8987,-2.9017,-2.9,-2.906,-2.8991,-2.9023,-2.9024,-2.9026,-2.9185,-2.9219,-2.9331,-2.9128,-2.9131,-2.9133,0,-2.9074,-2.9082,-2.9158,-2.9141,-2.9151,-2.9184,-2.9193,-2.9213,-2.9208,-2.9194,-2.92,-2.9162,-2.9201,-2.9138,-2.9191,-2.9145,-2.9155,-2.9149,-2.9152,-2.9155,-2.9086,-2.9193,-2.9365,-2.9383,-2.9156,-2.9154,-2.9152,0,-2.9203,-2.9233,-2.9282,-2.9283,-2.9265,-2.9289,-2.9282,-2.9274,-2.9285,-2.9293,-2.9299,-2.9312,-2.9319,-2.933,-2.9296,-2.9254,-2.9354,-2.9289,-2.9344,-2.9345,-2.9369,-2.9369,-2.9548,-2.9374,-2.9374,-2.9374,-2.9373,0,-2.9342,-2.9391,-2.9339,-2.937,-2.9422,-2.9378,-2.9432,-2.9418,-2.9411,-2.9438,-2.9387,-2.9413,-2.9367,-2.9389,-2.9363,-2.9411,-2.9414,-2.9404,-2.9397,-2.941,-2.9411,-2.9417,-2.9409,-2.9378,-2.9377,-2.9376,-2.9376,0,-2.9496,-2.9463,-2.9513,-2.949,-2.9485,-2.9525,-2.9506,-2.9533,-2.9511,-2.9546,-2.9552,-2.9519,-2.9541,-2.9508,-2.9528,-2.9511,-2.9577,-2.9557,-2.9579,-2.9573,-2.9631,-2.9626,-2.9821,-2.9844,-2.9655,-2.9657,-2.9659,0,-2.9588,-2.9624,-2.9604,-2.9618,-2.9614,-2.9637,-2.9646,-2.9603,-2.9615,-2.9611,-2.9639,-2.9657,-2.9669,-2.9709,-2.9687,-2.9702,-2.9683,-2.975,-2.9685,-2.9696,-2.9685,-2.9684,-2.9687,-2.9764,-2.9766,-2.9768,-2.977,0,-2.9755,-2.9736,-2.9751,-2.9761,-2.9773,-2.9779,-2.978,-2.9795,-2.9749,-2.9765,-2.9787,-2.9796,-2.9815,-2.9834,-2.9843,-2.9836,-2.9796,-2.979,-2.9803,-2.9818,-2.9829,-2.9824,-2.9616,-2.9786,-2.9784,-2.9783,-2.9782,-2.9782,-2.9881,-2.991,-2.99,-2.9918,-2.9914,-2.9917,-2.9941,-2.9921,-2.9938,-2.9949,-2.9922,-2.9951,-2.9944,-2.9951,-2.9949,-2.9971,-2.9941,-2.9961,-2.9966,-2.9972,-2.9982,-2.9824,-2.9972,-2.9971,-2.9971,-2.997,-2.997,0,-3.0046,-3.0036,-3.0053,-3.0056,-3.007,-3.0028,-3.0027,-3.0042,-3.0067,-3.0064,-3.0076,-3.0101,-3.0118,-3.0097,-3.011,-3.0132,-3.0114,-3.0137,-3.0136,-3.0135,-3.0007,-2.9994,-3.0152,-3.0152,-3.0151,-3.0151,-3.0151,-3.0151,-3.0134,-3.018,-3.0159,-3.0203,-3.0192,-3.0218,-3.0221,-3.0223,-3.0219,-3.0249,-3.0262,-3.0247,-3.0236,-3.0248,-3.0263,-3.0256,-3.0264,-3.0294,-3.0281,-3.0162,-3.0144,-3.0127,-3.0115,-3.0296,-3.0296,-3.0408,-3.0409,-3.0409]},{"header":{"parameterUnit":"m.s-1","parameterCategory":1,"la1":30.2991,"la2":30.254,"lo1":-89.0895,"lo2":-89.0444,"dy":0.0017,"dx":0.0017,"nx":28,"ny":28,"refTime":"2024-05-12T09:00:00:Z","depth":0,"parameterNumber":3,"parameterNumberName":"V-component_of_WINDS"},"data":[0,0,0,0,0,0,0,0,0,0,0,0,0,0,0,0,0,0,0,0,0,0,0,0,0,0,0,0,0,0,0,0,0,0,0,0,0,0,0,0,0,0,0,0,0,0,0,0,0,0,0,0,0,0,0,0,0,0,-5.9073,-5.9074,0,-5.9208,-5.921,-5.9211,-5.9199,-5.9197,-5.9195,-5.9193,-5.9324,-5.9329,-5.9334,0,0,0,0,0,0,0,0,0,0,0,0,0,-5.8795,-5.88,-5.9073,-5.9074,-5.9076,-5.9208,-5.921,-5.9212,-5.92,-5.9197,-5.9195,-5.9193,-5.9322,-5.9328,-5.9335,0,0,0,0,0,0,0,0,0,0,0,0,0,-5.8921,-5.8802,-5.9072,-5.9086,-5.9089,-5.9208,-5.921,-5.9212,-5.92,-5.9197,-5.9194,-5.9191,-5.932,-5.9328,-5.9336,-5.9447,0,0,-5.936,-5.9364,0,0,0,0,0,0,0,0,-5.8914,-5.8931,-5.9083,-5.9086,-5.9089,-5.9184,-5.916,-5.929,-5.9201,-5.9158,-5.9193,-5.919,-5.9279,-5.929,-5.9322,-5.9453,-5.9458,-5.9361,-5.9366,-5.9369,-5.9372,0,0,0,0,0,0,0,-5.8905,-5.8925,-5.9126,-5.9085,-5.9088,-5.9083,-5.9097,-5.9184,-5.9234,-5.9161,-5.9161,-5.9177,-5.928,-5.9315,-5.9325,-5.946,-5.9361,-5.9368,-5.9373,-5.9376,-5.9688,-5.9691,0,0,0,0,0,0,-5.8895,-5.8918,-5.9122,-5.913,-5.8992,-5.909,-5.9107,-5.9156,-5.9233,-5.9242,-5.918,-5.9176,-5.9302,-5.9316,-5.933,-5.9466,-5.9369,-5.9377,-5.9382,-5.9685,-5.9689,-5.9693,0,0,0,0,0,0,-5.8889,-5.8913,-5.9116,-5.9024,-5.905,-5.9098,-5.9154,-5.9161,-5.9195,-5.9247,-5.9255,-5.9207,-5.93,-5.9318,-5.9418,-5.947,-5.9381,-5.9388,-5.9681,-5.9686,-5.9691,-5.9738,0,0,0,0,0,0,-5.8881,-5.8911,-5.8956,-5.9025,-5.9055,-5.9205,-5.9157,-5.9165,-5.921,-5.9207,-5.9274,-5.9282,-5.9299,-5.9406,-5.9426,-5.9479,-5.9394,-5.9676,-5.9683,-5.9689,-5.9732,-5.9744,-5.9754,0,0,0,0,0,-5.8871,-5.8962,-5.8958,-5.8983,-5.9112,-5.9208,-5.9225,-5.9245,-5.9214,-5.9259,-5.9292,-5.928,-5.9461,-5.9417,-5.9439,-5.9495,-5.9673,-5.9681,-5.9689,-5.9727,-5.9741,-5.9754,0,0,0,0,0,0,-5.8894,-5.8971,-5.8968,-5.9085,-5.9141,-5.9206,-5.9263,-5.926,-5.9324,-5.9318,-5.9337,-5.9352,-5.9453,-5.9483,-5.9433,-5.9606,-5.9562,-5.9575,-5.9584,-5.9598,-5.9609,-5.96,-5.9401,0,0,0,0,0,-5.8913,-5.8988,-5.905,-5.9146,-5.9175,-5.9214,-5.9257,-5.9268,-5.9325,-5.9348,-5.9388,-5.9442,-5.9511,-5.9555,-5.9621,-5.9735,-5.9749,-5.9784,-5.9796,-5.9804,-5.9816,-5.9878,-5.9894,-5.9718,-5.9718,-5.9718,0,0,-5.8953,-5.9004,-5.905,-5.9153,-5.9197,-5.9271,-5.9234,-5.9314,-5.9369,-5.9359,-5.9457,-5.9488,-5.9549,-5.9657,-5.9706,-5.9685,-5.9867,-5.9814,-5.9821,-5.9828,-5.9888,-5.9904,-5.9919,-5.9723,-5.9722,-5.9722,0,0,-5.9064,-5.911,-5.9197,-5.9242,-5.9311,-5.9336,-5.9357,-5.9423,-5.9445,-5.9544,-5.9538,-5.9601,-5.9719,-5.9763,-5.9801,-5.9927,-5.9919,-5.9947,-6.0007,-6.0067,-6.0081,-6.0093,-6.0139,-6.0155,-5.9958,-5.9958,-5.9958,0,-5.9104,-5.9219,-5.924,-5.9323,-5.9367,-5.9364,-5.945,-5.9492,-5.9577,-5.9607,-5.9583,-5.9732,-5.9772,-5.989,-5.9921,-5.9951,-5.9974,-5.9941,-6.0078,-6.009,-6.0102,-6.0146,-6.0163,-5.9961,-5.9961,-5.9961,-5.996,0,-5.9265,-5.9344,-5.9405,-5.9492,-5.9543,-5.9626,-5.9657,-5.9706,-5.9711,-5.9738,-5.9838,-5.9887,-5.9963,-5.9991,-5.9996,-6.0109,-6.0094,-6.0074,-6.003,-6.0122,-6.0163,-6.018,-5.9966,-5.9965,-5.9964,-5.9963,0,0,-5.9397,-5.9494,-5.9516,-5.9555,-5.963,-5.969,-5.9771,-5.9849,-5.989,-5.9948,-6.0016,-6.0116,-6.0098,-6.014,-6.0149,-6.0202,-6.03,-6.0175,-6.0177,-6.0198,-6.0428,-6.0444,-6.0464,-6.0294,-6.0297,-6.03,-6.0423,0,-5.9516,-5.9666,-5.9687,-5.9817,-5.989,-5.9887,-5.9958,-6.001,-6.0036,-6.01,-6.0127,-6.0199,-6.0168,-6.0194,-6.0246,-6.0277,-6.0346,-6.0268,-6.0356,-6.0359,-6.0344,-6.0485,-6.0503,-6.0618,-6.0439,-6.0442,-6.0444,0,-5.9677,-5.9743,-5.9882,-5.9947,-5.9978,-6.0042,-6.0114,-6.0175,-6.0233,-6.0248,-6.0296,-6.0299,-6.038,-6.0332,-6.0444,-6.0391,-6.0427,-6.0447,-6.0452,-6.0463,-6.0409,-6.0501,-6.0654,-6.0672,-6.0469,-6.0467,-6.0465,0,-5.9761,-5.9884,-5.9983,-6.0016,-6.0094,-6.0139,-6.0173,-6.0228,-6.0272,-6.0334,-6.0363,-6.0431,-6.0469,-6.0521,-6.0541,-6.0504,-6.0653,-6.0606,-6.0667,-6.0666,-6.07,-6.0698,-6.0863,-6.072,-6.072,-6.072,-6.0719,0,-5.9894,-5.998,-6.0022,-6.0084,-6.0178,-6.0199,-6.0291,-6.0323,-6.0371,-6.0437,-6.0435,-6.0496,-6.0518,-6.0581,-6.0597,-6.0688,-6.0704,-6.0717,-6.0721,-6.0719,-6.0718,-6.0745,-6.0738,-6.0724,-6.0723,-6.0723,-6.0722,0,-6.0006,-6.0038,-6.0146,-6.0211,-6.0229,-6.0296,-6.035,-6.0408,-6.0433,-6.0515,-6.0535,-6.0574,-6.0649,-6.0673,-6.0762,-6.0773,-6.0879,-6.0874,-6.0861,-6.0862,-6.0922,-6.0917,-6.1112,-6.1139,-6.0977,-6.0978,-6.098,0,-6.009,-6.0156,-6.0228,-6.0274,-6.031,-6.0382,-6.0428,-6.045,-6.0498,-6.0568,-6.0617,-6.0691,-6.0752,-6.087,-6.0905,-6.0972,-6.097,-6.1034,-6.098,-6.0976,-6.0973,-6.097,-6.0976,-6.1045,-6.1046,-6.1048,-6.1049,0,-6.0236,-6.0249,-6.0317,-6.0391,-6.0447,-6.0506,-6.0562,-6.0598,-6.0627,-6.068,-6.0758,-6.0805,-6.0897,-6.097,-6.1039,-6.107,-6.1065,-6.1065,-6.1083,-6.1083,-6.1073,-6.1081,-6.089,-6.1061,-6.106,-6.1059,-6.1058,-6.1058,-6.0338,-6.0396,-6.0457,-6.0533,-6.0578,-6.063,-6.0688,-6.0721,-6.0787,-6.0866,-6.0873,-6.0957,-6.101,-6.1103,-6.1137,-6.1201,-6.1183,-6.1208,-6.1215,-6.1222,-6.1227,-6.1061,-6.1213,-6.1213,-6.1212,-6.1212,-6.1212,0,-6.0485,-6.0524,-6.0594,-6.0674,-6.0733,-6.0723,-6.0785,-6.0834,-6.0909,-6.0961,-6.1021,-6.1109,-6.118,-6.122,-6.129,-6.1333,-6.1332,-6.1351,-6.1349,-6.1356,-6.1239,-6.1217,-6.1351,-6.1351,-6.135,-6.135,-6.135,-6.135,-6.0569,-6.0669,-6.0688,-6.0808,-6.0845,-6.093,-6.0965,-6.1013,-6.1054,-6.1154,-6.1214,-6.124,-6.1286,-6.136,-6.1423,-6.1433,-6.1459,-6.148,-6.1488,-6.1378,-6.1364,-6.1351,-6.133,-6.1485,-6.1486,-6.16,-6.1601,-6.1602]}]]